Retour au catalogue

COSMOS 886 DEB

ActifLEO
NORAD 20673·DEBRIS·🇷🇺 Russia

Lancé Dec 27, 1976 depuis Baikonur Cosmodrome

Loading…

Prochains Passages (prochaines 24 heures)

TLE

FraisSource: Space-Track

Époque: Sep 14, 2026, 10:08 UTC

1 20673U 76126CG  26257.42285192  .00009770  00000-0  10083-2 0  9992
2 20673  65.5613 307.6003 0245341 179.9517 180.1662 14.70853966740467

Suivez COSMOS 886 DEB en temps réel avec AllMySat

Download on the App Store